Waarnemingen

Advertentie
Mijn weer
Beauvechain, België (6458): temperatuur & dauwpunt: 08.07.2020 16:00:00 - 14.07.2020 16:00:00 (CEST)Beauvechain, België (6458): windsnelheid & windstoten: 08.07.2020 16:00:00 - 14.07.2020 16:00:00 (CEST)Beauvechain, België (6458): windrichting: 08.07.2020 16:00:00 - 14.07.2020 16:00:00 (CEST)Beauvechain, België (6458): luchtdruk: 08.07.2020 16:00:00 - 14.07.2020 16:00:00 (CEST)Beauvechain, België (6458): zicht: 08.07.2020 16:00:00 - 14.07.2020 16:00:00 (CEST)Beauvechain, België (6458): neerslag: 08.07.2020 16:00:00 - 14.07.2020 16:00:00 (CEST)
Datum & Tijd tt [°C] td [°C] ff [km/u] ff [kn] fx [km/u] fx [kn] dd ppp [hPa] vv [km] rr [mm]
14.07.2020 16:00:00 - - - - - - - - - -
14.07.2020 15:00:00 17,6 14,1 15 8 25 14 ZW 1015,0 10 -
14.07.2020 14:00:00 18,6 12,9 11 6 - - ZW 1015,0 15 -
14.07.2020 13:00:00 18,1 13,1 7 4 18 10 W 1015,3 20 -
14.07.2020 12:00:00 16,7 12,6 7 4 25 14 WZW 1016,0 15 -
14.07.2020 11:00:00 16,5 12,3 11 6 - - WZW 1016,0 12 -
14.07.2020 10:00:00 17,1 10,6 7 4 18 10 WZW 1016,2 20 -
14.07.2020 09:00:00 15,5 9,8 11 6 18 10 WZW 1016,5 20 -
14.07.2020 08:00:00 14,8 9,3 7 4 - - ZW 1016,7 20 -
14.07.2020 07:00:00 14,3 8,5 7 4 11 6 ZZW 1016,8 20 -
14.07.2020 06:00:00 14,4 8,7 11 6 11 6 ZW 1017,1 20 -
14.07.2020 05:00:00 14,6 8,4 4 2 - - N 1017,3 20 -
14.07.2020 04:00:00 14,3 8,3 7 4 14 8 ZW 1018,0 20 -
14.07.2020 03:00:00 14,9 8,4 4 2 7 4 N 1018,3 20 -
14.07.2020 02:00:00 16,0 8,5 4 2 - - N 1018,7 20 -
14.07.2020 01:00:00 16,8 8,6 4 2 4 2 N 1019,0 20 -
14.07.2020 00:00:00 17,5 7,9 4 2 4 2 N 1019,3 20 -
13.07.2020 23:00:00 18,1 7,1 4 2 - - N 1019,7 20 -
13.07.2020 22:00:00 18,6 7,5 4 2 18 10 N 1019,8 20 -
13.07.2020 21:00:00 21,3 8,6 7 4 14 8 NNW 1019,6 20 -
13.07.2020 20:00:00 22,1 8,1 11 6 - - NNW 1019,7 20 -
13.07.2020 19:00:00 23,7 8,8 7 4 22 12 N 1019,7 20 -
13.07.2020 18:00:00 24,3 8,4 4 2 18 10 N 1020,2 20 -
13.07.2020 17:00:00 23,7 7,5 4 2 - - N 1020,7 20 -
13.07.2020 16:00:00 23,4 8,2 7 4 18 10 NW 1021,3 20 -
13.07.2020 15:00:00 23,3 9,7 4 2 14 8 N 1021,8 20 -
13.07.2020 14:00:00 22,1 8,4 4 2 - - N 1022,7 20 -
13.07.2020 13:00:00 22,1 9,1 7 4 14 8 NNW 1023,2 20 -
13.07.2020 12:00:00 21,3 8,8 4 2 14 8 N 1023,7 20 -
13.07.2020 11:00:00 20,3 8,8 11 6 - - N 1024,0 20 -
13.07.2020 10:00:00 18,0 10,8 4 2 11 6 N 1024,5 20 -
13.07.2020 09:00:00 13,4 10,2 4 2 7 4 N 1025,0 20 0,0
13.07.2020 08:00:00 13,4 10,2 4 2 - - N 1025,0 20 -
13.07.2020 07:00:00 11,6 9,4 0 0 0 0 N 1025,0 20 -
13.07.2020 06:00:00 11,1 8,7 0 0 0 0 N 1025,0 20 -
13.07.2020 05:00:00 11,3 8,7 4 2 - - N 1025,2 20 -
13.07.2020 04:00:00 11,5 8,6 4 2 7 4 N 1025,7 20 -
13.07.2020 03:00:00 13,1 8,3 4 2 4 2 N 1026,0 20 -
13.07.2020 02:00:00 13,8 8,3 4 2 - - N 1026,0 20 -
13.07.2020 01:00:00 14,3 8,2 4 2 4 2 N 1026,2 20 -
13.07.2020 00:00:00 14,8 7,8 4 2 4 2 N 1026,2 20 -
12.07.2020 23:00:00 15,8 7,4 4 2 - - N 1026,4 20 -
12.07.2020 22:00:00 16,6 7,5 4 2 11 6 N 1026,2 20 -
12.07.2020 21:00:00 18,3 7,3 7 4 14 8 NO 1026,0 20 -
12.07.2020 20:00:00 20,2 6,7 11 6 - - NO 1026,0 19 -
12.07.2020 19:00:00 20,6 7,2 11 6 22 12 NNO 1026,2 20 -
12.07.2020 18:00:00 20,4 7,0 7 4 22 12 NNO 1026,7 20 -
12.07.2020 17:00:00 20,7 7,1 11 6 - - NO 1027,0 19 -
12.07.2020 16:00:00 20,0 6,7 7 4 29 16 NO 1027,4 20 -
12.07.2020 15:00:00 20,4 8,1 14 8 25 14 NO 1027,5 20 -
12.07.2020 14:00:00 19,3 7,1 7 4 - - NO 1028,0 20 -
12.07.2020 13:00:00 18,0 8,3 7 4 18 10 ONO 1028,5 20 -
12.07.2020 12:00:00 17,8 8,7 7 4 18 10 NO 1028,5 20 -
12.07.2020 11:00:00 16,8 10,0 11 6 - - NNO 1028,5 20 -
12.07.2020 10:00:00 15,2 11,0 7 4 14 8 ONO 1028,7 20 -
12.07.2020 09:00:00 13,9 10,6 11 6 14 8 NO 1028,7 20 -
12.07.2020 08:00:00 12,0 10,6 7 4 - - NO 1028,2 18 -
12.07.2020 07:00:00 10,9 10,3 4 2 4 2 N 1028,0 12 -
12.07.2020 06:00:00 10,1 9,4 4 2 7 4 N 1027,7 11 -
12.07.2020 05:00:00 10,4 9,5 4 2 - - N 1027,5 15 -
12.07.2020 04:00:00 11,1 9,8 4 2 7 4 N 1027,5 19 -
12.07.2020 03:00:00 11,6 9,7 4 2 7 4 N 1027,5 20 -
12.07.2020 02:00:00 12,3 9,8 4 2 - - N 1027,5 20 -
12.07.2020 01:00:00 12,1 9,5 4 2 7 4 N 1027,5 20 -
12.07.2020 00:00:00 13,0 9,5 4 2 7 4 N 1027,5 20 -
11.07.2020 23:00:00 14,0 8,6 4 2 - - N 1027,2 20 -
11.07.2020 22:00:00 14,5 9,0 4 2 14 8 N 1026,5 20 -
11.07.2020 21:00:00 16,7 9,7 11 6 22 12 N 1026,2 20 -
11.07.2020 20:00:00 18,3 8,7 11 6 - - N 1025,7 20 -
11.07.2020 19:00:00 19,0 8,6 14 8 25 14 NW 1025,5 20 -
11.07.2020 18:00:00 18,3 10,1 11 6 22 12 NW 1025,5 20 -
11.07.2020 17:00:00 19,2 10,1 14 8 - - NNW 1025,2 20 -
11.07.2020 16:00:00 18,7 9,0 11 6 22 12 NW 1025,0 20 -
11.07.2020 15:00:00 18,0 8,8 11 6 18 10 W 1025,0 20 -
11.07.2020 14:00:00 18,0 7,9 7 4 - - WNW 1025,0 20 -
11.07.2020 13:00:00 17,0 9,3 14 8 22 12 W 1025,0 20 -
11.07.2020 12:00:00 17,3 8,0 7 4 18 10 W 1024,7 20 -
11.07.2020 11:00:00 16,8 9,3 7 4 - - WNW 1024,7 20 -
11.07.2020 10:00:00 15,8 10,4 4 2 14 8 N 1024,5 20 -
11.07.2020 09:00:00 14,1 9,5 4 2 7 4 N 1024,2 20 -
11.07.2020 08:00:00 12,5 10,0 7 4 - - N 1023,8 20 -
11.07.2020 07:00:00 10,6 8,7 4 2 7 4 N 1023,6 20 -
11.07.2020 06:00:00 10,6 8,5 4 2 7 4 N 1023,2 20 -
11.07.2020 05:00:00 10,5 8,5 7 4 - - N 1022,6 20 -
11.07.2020 04:00:00 11,1 8,5 4 2 4 2 N 1022,2 20 -
11.07.2020 03:00:00 11,6 8,6 4 2 4 2 N 1022,2 20 -
11.07.2020 02:00:00 11,5 8,3 4 2 - - N 1022,2 20 -
11.07.2020 01:00:00 11,5 8,4 4 2 4 2 N 1021,7 20 -
11.07.2020 00:00:00 12,3 8,2 4 2 7 4 N 1021,1 20 -
10.07.2020 23:00:00 12,9 8,2 4 2 - - N 1020,5 20 -
10.07.2020 22:00:00 14,0 7,9 4 2 18 10 N 1019,6 20 -
10.07.2020 21:00:00 16,1 7,8 14 8 25 14 NW 1019,1 20 -
10.07.2020 20:00:00 17,7 8,2 14 8 - - NNW 1018,3 20 -
10.07.2020 19:00:00 17,9 9,1 14 8 25 14 NNW 1017,8 20 -
10.07.2020 18:00:00 18,2 9,9 18 10 29 16 NW 1017,5 20 -
10.07.2020 17:00:00 17,8 10,4 14 8 - - NW 1017,2 20 -
10.07.2020 16:00:00 17,6 11,5 18 10 32 18 NW 1016,7 20 -
10.07.2020 15:00:00 18,4 12,4 18 10 36 19 NNW 1016,1 20 -
10.07.2020 14:00:00 19,9 12,6 18 10 - - WNW 1014,8 20 -
10.07.2020 13:00:00 16,6 13,2 18 10 32 18 WNW 1014,5 18 -
10.07.2020 12:00:00 18,0 13,3 22 12 32 18 NW 1013,6 20 -
10.07.2020 11:00:00 17,5 13,6 18 10 - - WNW 1012,3 20 -
10.07.2020 10:00:00 17,3 14,4 22 12 36 19 W 1011,6 20 -
10.07.2020 09:00:00 15,8 15,0 22 12 29 16 WZW 1010,7 12 -
10.07.2020 08:00:00 15,8 14,5 18 10 - - WZW 1010,1 10 -
10.07.2020 07:00:00 16,1 13,8 22 12 36 19 WZW 1009,8 20 -
10.07.2020 06:00:00 16,2 13,7 22 12 32 18 WZW 1009,7 20 -
10.07.2020 05:00:00 16,5 13,6 22 12 - - WZW 1009,7 20 -
10.07.2020 04:00:00 16,8 13,7 18 10 32 18 WZW 1010,1 20 -
10.07.2020 03:00:00 17,5 13,8 18 10 29 16 ZW 1010,3 20 -
10.07.2020 02:00:00 17,8 13,8 18 10 - - ZW 1010,8 20 -
10.07.2020 01:00:00 18,4 14,3 11 6 22 12 ZW 1011,2 20 -
10.07.2020 00:00:00 19,0 15,2 4 2 7 4 N 1011,2 20 -
09.07.2020 23:00:00 19,5 15,2 4 2 - - N 1011,3 20 -
09.07.2020 22:00:00 19,7 15,5 7 4 14 8 NNW 1011,6 20 -
09.07.2020 21:00:00 22,7 15,3 4 2 14 8 N 1011,2 20 -
09.07.2020 20:00:00 23,6 14,1 11 6 - - WNW 1011,5 20 -
09.07.2020 19:00:00 23,7 14,5 14 8 25 14 W 1011,7 20 -
09.07.2020 18:00:00 22,9 14,4 14 8 25 14 W 1012,3 20 -
09.07.2020 17:00:00 22,6 14,6 14 8 - - W 1013,0 20 -
09.07.2020 16:00:00 21,6 14,3 18 10 36 19 WZW 1013,5 20 -
09.07.2020 15:00:00 21,7 14,1 25 14 40 21 WZW 1013,7 20 -
09.07.2020 14:00:00 21,3 13,9 29 16 - - WZW 1013,7 20 -
09.07.2020 13:00:00 20,7 14,3 22 12 36 19 WZW 1014,2 20 -
09.07.2020 12:00:00 19,6 14,9 22 12 36 19 WZW 1014,2 20 -
09.07.2020 11:00:00 19,0 15,2 25 14 - - WZW 1014,2 20 -
09.07.2020 10:00:00 17,1 15,2 22 12 32 18 WZW 1014,6 20 -
09.07.2020 09:00:00 16,7 15,3 14 8 32 18 WZW 1014,6 20 -
09.07.2020 08:00:00 16,5 15,2 22 12 - - ZW 1014,3 19 -
09.07.2020 07:00:00 16,2 15,4 18 10 29 16 ZW 1014,6 10 -
09.07.2020 06:00:00 16,1 15,5 18 10 25 14 WZW 1014,7 14 -
09.07.2020 05:00:00 16,1 15,4 14 8 - - WZW 1015,1 14 -
09.07.2020 04:00:00 16,1 15,2 18 10 29 16 WZW 1015,1 18 -
09.07.2020 03:00:00 16,1 15,4 22 12 29 16 WZW 1015,2 15 -
09.07.2020 02:00:00 16,1 15,5 14 8 - - ZW 1015,6 11 -
09.07.2020 01:00:00 16,1 15,7 13 7 22 12 ZW 1015,7 5 -
09.07.2020 00:00:00 16,1 15,7 14 8 22 12 WZW 1016,2 3,8 -
08.07.2020 23:00:00 16,2 15,9 11 6 - - WZW 1016,2 6 -
08.07.2020 22:00:00 16,2 16,2 7 4 14 8 WZW 1016,1 2,4 -
08.07.2020 21:00:00 16,2 16,1 7 4 18 10 WZW 1016,1 2,1 -
08.07.2020 20:00:00 16,3 16,0 7 4 - - W 1016,1 3,7 -
08.07.2020 19:00:00 16,5 15,5 14 8 25 14 WZW 1016,1 20 -
08.07.2020 18:00:00 16,5 15,6 14 8 25 14 WZW 1016,1 20 -
08.07.2020 17:00:00 16,6 15,8 11 6 - - W 1016,2 3,7 -
08.07.2020 16:00:00 16,5 15,7 14 8 25 14 ZW 1016,2 12 -

tt = temperatuur
td = dauwpunt
ff = windsnelheid
fx = windstoten
dd = windrichting
ppp = luchtdruk
vv = zicht
rr = neerslag

Weerstations in de omgeving